Theta_e
279 278 278 278 278 278 277 277 277 276 276 276 277 276 276 276 276 276 276 276 276 276 276 276 276 276 277 278 279 280 281 283 284 285 286 288 289 289 289 289 289 289 289 289 289 289 289 289 289 289 289 289 289 290 290 289 289 289 288 288 289 290 290 291 292 292 290 289 289 289 288 287 287 287 287 287 286 286 285 285 285 285 285 285 285
278 278 278 278 278 277 277 277 276 276 276 276 276 276 276 276 275 275 275 275 275 275 275 275 275 275 276 277 277 278 279 281 282 283 284 286 287 288 289 288 288 288 288 288 288 288 288 288 288 288 288 288 289 289 290 290 290 290 289 288 288 288 289 290 290 290 290 289 288 288 288 286 286 286 287 286 287 286 285 285 285 285 285 285 285
278 278 278 277 277 277 277 277 276 276 276 276 276 275 275 275 275 275 275 275 274 274 274 274 274 275 275 276 276 277 277 278 280 281 282 283 285 287 288 288 288 288 288 288 288 288 288 288 288 288 288 288 288 289 289 289 290 290 290 289 289 288 288 289 289 289 288 288 288 287 286 285 285 285 286 286 286 286 285 285 285 285 285 285 285
277 277 278 277 277 277 277 277 276 276 276 276 275 275 275 275 274 274 274 274 274 274 274 274 274 274 274 275 275 275 276 276 278 279 281 282 283 284 286 287 287 287 288 288 288 287 287 287 287 287 288 288 288 288 288 289 289 289 289 289 289 289 288 288 288 288 288 287 287 287 287 286 285 285 286 285 285 285 285 285 285 285 285 284 284
277 277 277 277 277 277 276 276 276 276 276 275 275 275 275 275 274 273 273 273 273 273 273 273 273 273 273 274 274 275 275 275 276 277 279 280 282 283 284 286 287 287 287 287 287 287 287 287 287 287 287 287 287 287 287 288 288 288 288 288 288 288 288 288 288 288 287 287 287 287 286 286 285 285 285 284 284 284 284 284 284 284 284 284 284
277 277 277 277 277 276 276 276 276 276 276 275 275 275 274 274 274 273 273 273 273 273 272 272 272 272 273 273 274 274 274 274 275 276 278 279 281 282 283 284 285 286 287 286 286 287 287 287 287 287 286 286 286 286 287 287 287 287 287 287 287 287 287 287 287 287 287 287 287 286 285 285 284 284 284 284 284 283 283 283 283 283 283 283 283
276 276 277 277 277 276 276 276 275 276 275 275 275 275 274 274 274 273 273 272 272 272 272 271 271 271 272 272 273 273 273 274 274 275 277 278 279 280 282 283 284 285 286 286 286 286 286 286 286 286 286 286 286 286 286 286 286 287 287 287 287 287 286 286 286 286 285 285 285 285 284 284 284 283 283 283 283 283 283 282 281 282 282 282 283
276 276 276 277 277 276 276 275 275 275 275 275 275 274 274 274 274 273 273 272 271 271 271 271 271 271 271 271 272 272 273 273 273 274 276 277 279 279 280 282 283 284 284 285 286 286 286 286 286 286 286 286 286 286 286 286 286 286 286 286 286 285 285 285 284 284 284 283 283 284 284 283 283 282 282 281 281 281 281 281 281 281 281 281 281
276 276 276 276 276 276 276 275 275 275 275 275 275 275 274 274 273 273 273 272 271 271 271 270 270 270 270 271 271 272 272 273 273 274 275 277 278 279 280 281 281 283 283 284 285 285 286 286 286 286 285 285 286 286 286 286 285 285 285 285 285 284 284 284 283 283 283 282 282 282 282 282 282 282 281 281 280 280 280 281 281 281 281 281 281
275 275 275 276 276 276 276 275 275 275 275 275 275 274 274 274 273 273 272 272 271 271 270 270 270 270 270 270 271 271 272 272 273 273 275 277 279 280 280 280 281 281 282 283 284 284 284 285 285 285 285 285 285 285 285 285 285 285 285 284 284 284 283 283 283 283 282 282 282 281 281 281 282 282 282 281 281 280 280 280 280 280 280 279 279
275 275 275 275 276 276 275 275 275 274 274 275 274 274 274 274 273 273 272 272 271 271 270 270 270 270 269 270 270 271 271 272 272 273 274 277 278 279 279 280 280 281 281 282 283 283 284 284 284 284 284 285 285 284 284 284 284 284 284 284 284 284 283 283 283 282 282 282 282 281 281 281 281 282 282 282 281 280 280 279 279 279 278 278 278
275 275 275 275 275 276 275 275 274 274 274 274 274 274 273 273 273 272 272 271 271 270 270 269 269 269 269 269 270 270 271 271 272 273 274 276 278 278 278 279 280 280 280 280 281 282 283 283 283 283 283 284 284 284 283 283 284 284 284 284 284 284 283 283 283 282 282 282 282 281 281 281 281 281 281 281 281 281 280 279 279 278 278 278 278
274 274 274 274 275 275 275 274 274 274 274 274 273 273 273 273 272 272 271 271 270 270 269 269 269 269 269 269 269 269 270 270 271 272 273 275 277 278 277 277 278 279 280 279 280 281 281 282 282 283 283 283 283 283 283 283 283 283 283 283 283 283 283 283 283 282 282 282 281 281 281 281 281 281 281 281 281 281 280 279 278 278 278 278 278
274 274 274 274 275 275 274 274 273 273 273 273 273 273 272 272 271 271 270 270 269 269 269 268 268 268 268 268 269 269 269 270 271 272 273 275 277 277 276 276 276 277 278 279 279 279 280 280 281 281 282 282 282 282 282 282 282 282 282 282 282 282 282 282 282 282 282 281 281 281 281 281 280 280 280 280 280 280 280 279 278 278 278 278 278
273 273 273 274 274 274 274 274 273 273 273 272 272 272 272 271 270 270 269 269 269 269 268 268 268 267 268 268 269 269 269 269 271 272 273 275 276 276 275 275 275 276 277 277 278 278 279 279 279 280 280 280 280 280 280 281 281 282 282 282 282 281 281 281 281 281 281 281 281 281 280 280 280 280 280 280 280 280 280 280 279 278 278 277 277
273 273 273 273 274 274 274 273 273 272 272 272 272 272 271 270 270 269 269 269 268 268 268 267 267 267 267 268 268 268 269 269 270 271 272 274 275 275 274 274 274 275 275 276 277 277 278 278 278 279 279 279 279 279 279 280 280 281 281 281 281 281 281 281 281 281 280 280 280 280 280 280 280 279 279 279 279 279 279 279 279 278 277 276 276
272 272 272 273 273 273 273 273 272 272 272 271 271 271 270 269 269 269 268 268 268 267 267 267 266 266 267 267 268 268 268 269 270 270 271 273 274 274 274 274 274 274 274 275 275 276 276 277 277 278 278 278 278 278 278 279 279 279 280 280 280 280 280 280 280 280 280 280 280 280 280 279 279 279 279 279 279 279 279 278 277 276 276 275 275
272 272 272 273 273 273 272 272 271 271 270 270 270 270 269 269 268 268 268 268 267 267 266 266 266 266 267 267 268 268 268 269 269 270 270 272 273 273 273 273 273 273 273 273 274 274 275 275 276 276 276 276 277 277 278 278 278 278 278 279 279 279 279 279 279 280 280 280 280 280 279 279 279 279 279 278 278 278 278 278 277 276 275 274 274
272 272 272 272 272 272 271 270 270 269 270 270 269 269 268 268 268 267 267 267 266 266 265 265 265 266 267 267 267 267 268 268 268 269 269 270 272 273 272 272 273 273 273 273 273 273 273 274 274 275 275 276 276 277 277 277 277 277 277 277 277 277 278 278 278 279 279 279 279 279 279 279 279 279 279 278 278 278 278 278 277 276 275 275 274
271 271 271 271 271 270 270 269 269 269 269 268 268 268 267 267 267 267 266 266 265 265 265 265 265 266 266 266 267 267 267 267 268 268 269 270 271 272 272 272 272 272 272 272 272 272 272 273 273 273 274 275 275 276 276 276 276 276 276 276 276 277 277 277 277 278 278 278 278 278 278 278 278 278 278 278 278 278 277 277 277 277 276 275 275
270 269 269 270 270 270 269 269 268 268 267 267 267 267 267 267 267 266 266 265 265 264 264 264 265 265 266 266 266 266 266 267 267 268 268 269 270 271 271 271 271 271 271 271 271 271 271 272 272 272 272 273 274 274 275 275 275 275 275 275 275 276 276 276 276 277 277 277 277 276 276 276 276 277 277 277 277 277 277 277 277 276 276 276 275
269 269 269 269 269 269 269 268 268 267 267 266 266 266 266 266 266 266 265 264 264 264 263 264 264 265 265 265 266 266 266 266 267 267 268 268 269 271 271 271 271 271 270 270 270 271 271 271 271 271 271 271 272 273 273 274 274 274 274 274 275 275 275 275 275 275 275 275 275 275 274 275 275 275 275 275 276 276 276 276 276 276 275 275 275
268 268 268 268 268 268 268 268 267 267 266 266 266 266 266 266 265 265 264 264 263 263 263 264 264 265 265 266 266 266 267 267 267 267 267 267 269 270 271 271 271 270 270 269 270 270 270 270 270 270 271 271 271 272 273 273 273 274 274 274 275 275 275 274 274 274 274 274 274 273 273 273 273 273 274 274 274 274 274 274 275 275 274 274 274
267 267 267 267 267 267 267 267 267 266 266 266 266 266 266 265 265 264 264 263 263 263 263 264 264 265 265 266 266 266 267 267 267 267 266 267 269 270 271 271 271 270 269 269 269 269 269 269 270 271 272 272 272 272 272 272 272 272 273 274 274 274 274 274 274 274 273 273 273 273 273 273 273 273 273 273 273 273 273 273 273 273 273 273 273
266 266 266 266 266 266 266 266 266 266 266 265 266 266 265 265 264 264 263 263 263 263 263 264 264 265 265 265 266 266 267 267 267 266 266 267 268 270 270 270 269 269 269 268 268 269 269 269 270 270 271 271 271 271 271 270 271 271 271 272 272 272 273 273 273 273 273 272 272 272 272 272 272 272 272 272 272 272 272 272 272 272 272 272 271
265 265 265 265 265 265 265 265 266 266 265 265 265 265 265 264 264 263 263 263 263 263 263 263 264 264 265 265 266 266 266 267 267 266 266 266 268 269 269 269 268 268 268 268 268 269 269 269 269 269 269 269 269 269 269 269 270 270 270 270 270 270 270 271 271 271 271 271 271 271 271 271 271 271 271 271 271 271 271 271 270 270 270 270 270
264 264 264 264 264 264 264 265 265 265 265 265 265 265 264 264 263 263 263 263 263 263 263 263 264 264 265 265 265 266 266 266 266 266 266 266 266 267 267 267 267 267 267 267 267 267 267 267 267 267 267 267 267 268 268 268 268 268 269 269 269 269 269 269 270 270 270 270 270 270 270 270 270 270 270 270 270 269 269 269 269 269 268 269 268
263 263 263 263 263 263 264 265 265 265 264 264 264 264 263 263 263 263 263 263 263 263 263 263 263 263 264 265 265 266 266 267 267 266 266 266 266 266 266 267 266 266 266 266 266 266 266 266 266 266 266 266 266 266 266 266 266 267 267 267 267 268 268 268 268 269 269 269 269 269 269 269 269 269 269 269 268 268 268 268 268 268 267 267 267
263 262 262 262 262 263 264 264 264 264 264 264 263 263 263 263 263 262 262 262 262 263 262 263 263 263 264 264 265 266 266 266 267 267 266 267 267 267 267 266 266 266 266 266 266 266 265 265 265 265 265 265 265 265 265 265 265 265 266 266 266 266 267 267 267 267 267 267 267 267 268 268 268 268 268 268 267 266 266 267 267 266 266 266 266
262 262 262 262 262 263 263 263 263 263 263 263 263 263 263 262 262 262 262 262 263 263 263 263 264 264 264 265 265 266 266 266 267 267 267 267 267 267 267 267 266 266 266 266 266 265 265 265 265 265 265 265 265 265 265 265 265 265 265 265 265 265 265 265 266 266 266 266 266 266 266 266 266 266 267 266 266 265 265 265 265 265 265 265 265
262 262 262 262 262 262 263 263 262 262 263 263 263 262 262 262 262 262 262 262 263 264 264 265 265 266 266 266 266 266 266 266 267 267 267 267 267 267 267 267 266 266 266 266 266 265 265 265 265 265 265 265 265 265 265 265 265 264 264 264 264 264 264 264 264 265 265 265 265 265 265 265 265 265 265 265 264 264 264 264 264 264 264 264 263
262 262 262 262 262 262 262 262 262 262 262 262 262 262 262 262 262 262 262 262 262 263 264 265 266 266 266 266 266 266 266 266 266 266 266 266 266 266 266 266 266 266 266 266 266 265 265 265 265 265 265 265 265 265 265 264 264 264 264 264 264 263 264 264 264 264 264 264 264 264 264 264 264 264 264 264 263 263 263 263 262 262 262 262 262
262 261 261 261 262 262 262 262 262 262 262 262 262 262 262 262 261 261 261 262 262 263 264 264 265 265 266 266 266 266 266 266 265 266 266 265 265 265 265 265 266 266 266 266 265 264 264 264 264 264 264 264 264 264 264 264 264 263 263 263 263 263 263 263 263 263 263 263 263 263 263 263 263 263 262 262 262 262 262 261 261 261 261 261 260
261 261 261 261 261 261 262 262 262 262 262 262 262 261 261 261 261 261 260 261 261 262 262 263 263 263 264 264 264 265 265 265 265 265 265 265 265 265 265 265 265 265 265 265 264 264 263 263 263 263 263 263 263 263 263 263 263 263 263 263 262 262 262 262 262 262 262 262 262 262 262 262 262 262 261 261 261 261 260 260 260 260 260 260 259
260 260 261 261 261 261 261 262 262 262 262 261 261 261 261 261 261 261 260 260 260 260 261 261 262 262 262 262 263 263 263 263 264 264 264 264 264 264 265 265 264 264 264 264 263 263 263 263 263 262 262 262 262 263 263 262 262 262 262 262 262 261 261 261 261 261 261 261 261 260 260 260 260 260 260 260 260 260 259 259 259 259 259 258 258
260 260 261 261 261 261 261 261 262 262 262 261 261 261 260 260 260 260 260 259 259 259 259 260 260 261 261 261 261 261 261 262 262 262 263 263 264 264 264 264 263 263 263 263 262 262 262 262 262 262 262 262 262 262 262 262 261 261 261 261 261 261 260 260 260 260 260 260 259 259 259 259 259 259 259 259 259 258 258 258 258 258 257 257 257
260 260 261 261 260 260 260 261 261 261 261 261 261 260 260 260 260 259 259 259 259 259 259 259 259 260 260 260 260 260 260 260 260 261 262 263 263 263 263 263 263 262 262 262 262 261 261 261 261 261 261 261 261 261 261 261 260 260 260 260 260 260 260 259 259 259 259 259 258 258 258 258 258 258 258 258 257 257 257 257 257 256 256 256 256
259 260 260 260 259 259 259 259 260 260 260 260 260 260 260 259 259 259 259 259 259 259 259 259 259 259 259 260 260 260 259 259 259 260 261 261 262 262 262 262 261 261 261 261 261 261 260 260 260 260 259 259 259 260 260 260 259 259 259 259 259 259 259 258 258 258 258 258 257 257 257 257 257 257 257 257 256 256 256 256 255 255 255 255 254
259 259 259 259 258 258 258 258 258 259 259 260 260 260 259 259 259 259 259 259 259 259 259 259 259 259 259 260 259 259 259 259 259 259 260 260 260 260 260 260 260 260 260 260 260 260 260 259 259 259 258 258 258 258 258 258 258 258 258 258 258 258 258 257 257 257 257 257 256 256 256 256 256 256 256 256 255 255 255 255 254 254 254 254 253
258 258 258 258 257 257 257 257 257 258 259 259 259 259 259 259 259 259 259 259 259 259 259 259 259 259 259 259 259 259 259 259 259 259 259 259 259 259 259 259 259 259 259 259 259 259 259 259 258 258 258 258 258 258 258 257 257 257 257 257 257 257 257 257 257 256 256 256 256 255 255 255 255 255 254 254 254 254 254 254 253 253 253 253 252
258 257 257 257 256 256 256 256 257 257 258 259 259 259 259 259 259 259 258 258 258 258 258 258 259 259 259 259 259 259 259 259 259 259 259 259 259 259 259 258 258 258 258 258 258 258 258 258 257 257 257 257 257 257 257 257 257 257 257 256 256 256 256 256 255 255 255 255 255 255 254 254 254 254 253 253 253 253 253 253 253 252 252 252 251
257 256 256 256 255 255 255 255 256 256 257 258 258 258 258 258 258 258 258 258 258 258 258 258 259 259 259 259 259 259 259 259 258 258 258 258 258 258 258 258 258 258 258 257 257 257 257 257 257 257 256 256 256 256 256 256 256 256 256 256 256 255 255 255 255 254 254 254 254 254 253 253 253 253 252 252 252 252 252 252 251 251 251 251 251
256 256 255 255 255 255 255 255 255 256 257 258 258 258 258 258 258 258 258 258 258 258 258 258 258 258 258 258 259 259 259 259 258 258 258 258 258 258 258 257 257 257 257 257 257 257 257 256 256 256 256 255 255 255 255 255 255 255 255 255 255 255 255 254 254 254 253 253 253 253 253 252 252 252 252 251 251 251 251 251 251 251 250 250 250
255 255 254 254 254 254 254 254 255 256 257 257 257 257 257 257 257 257 257 257 257 257 257 257 257 257 258 258 258 258 258 258 258 258 258 257 257 257 257 257 257 257 256 256 256 256 256 256 255 255 255 255 255 255 255 255 255 255 255 255 254 254 254 254 254 253 253 253 252 252 252 252 251 251 251 251 251 251 251 250 250 250 250 250 250
254 254 254 253 253 253 254 255 255 256 256 256 256 256 256 256 256 257 257 257 257 257 257 257 257 257 257 257 257 258 258 258 258 258 258 257 257 257 257 257 257 256 256 256 255 255 255 255 255 255 254 254 254 254 254 254 254 254 254 254 254 254 254 254 253 253 253 253 252 252 252 251 251 251 250 250 250 250 250 250 250 250 249 249 249
253 253 253 253 253 253 254 255 255 255 255 255 255 255 255 255 255 256 256 256 256 257 257 257 257 257 257 257 257 257 257 257 257 257 257 257 257 256 256 256 256 256 255 255 255 255 255 254 254 254 254 254 254 254 254 254 254 254 254 254 254 253 253 253 253 253 252 252 252 251 251 251 251 250 250 250 250 250 249 249 249 249 249 249 249
253 252 252 252 253 254 254 254 254 254 254 254 254 254 254 254 254 255 255 255 256 256 256 256 256 257 257 257 257 257 257 257 257 257 257 257 256 256 256 255 255 255 255 254 254 254 254 254 254 254 254 254 254 253 253 253 253 253 253 253 253 253 253 252 252 252 252 252 251 251 251 250 250 250 250 250 249 249 249 249 249 249 249 249 249
252 252 252 253 253 253 253 253 253 253 253 253 253 253 253 253 253 254 254 254 255 255 256 256 256 256 256 256 256 256 256 257 257 257 257 257 256 256 255 255 255 255 254 254 254 254 254 254 253 253 253 253 253 253 253 253 253 253 253 253 252 252 252 252 252 251 251 251 251 250 250 250 250 249 249 249 249 249 249 249 249 249 249 248 248
252 252 252 252 252 252 252 252 252 252 252 252 253 252 252 252 253 253 253 253 254 254 255 255 255 256 256 256 256 256 256 256 256 256 256 256 256 255 255 255 255 254 254 254 254 254 254 253 253 253 253 253 253 253 253 252 252 252 252 252 252 252 251 251 251 251 250 250 250 250 250 249 249 249 249 249 249 249 249 249 248 248 248 248 248
252 252 252 252 252 251 251 251 251 251 251 252 252 252 252 252 252 252 252 252 252 253 253 254 254 255 255 255 255 255 255 256 256 256 256 256 256 255 255 255 254 254 254 254 254 254 253 253 253 253 253 253 253 253 252 252 252 252 252 251 251 251 251 251 250 250 250 250 249 249 249 249 249 249 249 249 249 249 248 248 248 248 248 248 248
252 251 251 251 251 251 251 251 251 251 251 251 251 251 251 251 251 251 251 251 252 252 252 253 253 254 254 255 255 255 255 255 255 256 256 256 255 255 255 254 254 254 254 253 253 253 253 253 252 252 252 252 252 252 252 252 252 252 251 251 251 250 250 250 250 250 249 249 249 249 249 249 249 249 249 249 248 248 248 248 248 248 248 247 247
Wind_Speed
20 20 20 22 23 23 22 22 23 24 24 23 24 26 28 27 26 26 26 26 27 28 29 30 30 29 29 30 29 28 27 26 23 22 23 28 30 31 31 31 31 33 34 34 35 36 37 38 38 40 39 37 39 41 41 39 34 29 27 28 31 33 32 27 16 9 13 21 26 31 34 34 34 35 36 36 37 38 39 39 39 38 38 37 37
20 21 20 21 23 23 23 22 22 23 23 22 22 24 26 27 27 27 27 26 26 27 28 29 29 29 29 29 29 29 29 28 25 23 22 23 27 30 30 29 30 32 32 32 34 34 34 36 37 38 38 38 39 40 42 43 40 36 32 29 28 30 30 28 22 13 11 14 18 24 31 34 34 35 36 36 36 37 40 40 39 39 38 37 37
20 21 21 21 22 23 23 23 23 23 22 21 21 23 24 24 25 27 28 28 27 27 27 28 28 28 28 28 29 31 31 30 28 26 24 22 22 26 29 29 30 32 32 31 32 32 32 33 35 36 35 36 38 39 40 41 41 39 39 36 32 30 28 27 23 16 13 14 15 20 27 31 32 33 34 36 36 36 39 40 39 39 39 38 37
20 21 21 21 21 22 22 22 23 23 21 20 21 23 22 21 23 25 27 29 29 27 27 28 28 27 28 28 28 30 32 31 31 29 26 24 22 21 24 28 30 31 33 33 32 31 31 32 33 33 33 33 35 36 36 37 38 38 38 38 36 34 31 29 26 21 16 15 16 18 22 26 29 30 31 33 35 36 37 38 38 38 38 38 37
20 21 21 20 21 22 22 22 23 23 21 20 22 23 22 21 21 23 25 28 29 29 29 28 28 28 28 29 28 28 31 32 32 30 28 26 23 21 19 23 27 29 30 32 33 32 31 32 33 31 30 31 32 33 33 34 34 35 35 34 34 34 32 30 30 26 22 19 19 18 19 22 24 27 29 31 32 32 33 35 36 37 37 37 36
19 21 20 20 21 22 22 23 24 23 22 23 24 24 23 22 22 23 25 26 27 28 30 30 29 28 29 29 28 27 30 32 32 31 29 26 24 22 19 18 22 25 27 27 29 30 32 34 34 32 31 32 33 32 32 33 33 32 33 33 33 32 31 30 31 30 27 25 23 20 19 20 22 24 27 30 31 31 30 31 32 34 35 35 35
20 21 21 22 22 21 22 23 24 23 24 25 26 25 24 23 23 24 24 24 25 28 29 30 30 30 29 29 28 28 29 30 30 30 28 25 24 24 21 18 17 20 24 25 25 25 28 30 32 33 34 34 35 34 33 33 33 33 34 33 33 32 31 30 30 29 27 24 22 22 20 18 19 21 24 27 29 30 30 29 27 29 31 33 34
19 20 22 22 22 21 23 24 23 24 25 26 26 25 25 25 26 26 25 24 25 27 28 30 31 31 30 30 30 30 29 29 29 28 27 26 25 25 23 20 18 17 19 22 24 25 25 26 27 29 31 33 34 34 34 34 33 33 33 32 32 31 30 29 27 26 24 21 19 20 19 17 16 17 20 24 25 25 28 29 28 29 30 30 31
19 20 22 23 23 23 24 23 23 24 25 25 25 24 25 26 27 27 26 25 25 27 28 29 29 30 32 32 30 29 28 28 29 27 26 27 28 27 25 22 19 17 16 17 19 23 25 25 25 25 26 28 30 31 31 32 32 31 30 30 29 29 27 26 25 23 20 18 16 17 17 17 17 17 19 23 26 25 26 28 28 29 30 30 30
19 21 23 25 26 25 24 23 23 23 24 24 24 24 25 26 27 27 26 26 27 28 29 28 28 29 32 32 30 28 28 29 29 27 25 26 28 27 25 22 19 17 16 15 15 17 20 23 24 25 25 25 27 28 28 29 30 30 30 29 29 28 26 24 24 23 20 18 17 16 15 17 20 21 21 22 24 24 25 26 25 24 24 24 24
21 22 24 27 27 25 23 23 23 23 24 24 24 24 24 25 25 25 25 27 29 30 29 29 29 29 29 30 30 29 29 29 29 27 26 26 26 22 19 18 17 16 16 15 15 14 16 18 19 20 22 23 25 26 26 27 28 28 29 29 29 29 28 26 24 23 21 19 18 18 18 19 21 23 23 21 20 21 23 26 25 22 21 19 16
21 22 25 27 27 24 22 22 23 24 25 24 23 23 24 24 24 23 25 27 29 31 31 30 29 28 28 29 30 30 30 29 28 27 26 27 25 19 16 13 13 14 14 13 13 13 13 15 16 17 18 19 21 23 23 24 26 26 27 27 28 28 29 29 27 25 24 22 19 19 22 21 19 22 24 22 20 20 21 23 25 24 23 21 18
22 24 26 28 27 24 22 22 23 25 25 25 24 24 24 23 23 22 24 28 29 31 31 30 29 29 28 28 29 30 30 29 28 26 26 26 23 17 15 14 10 9 10 9 10 10 10 12 13 14 15 17 18 19 20 21 22 24 25 25 25 26 27 27 27 27 27 25 22 22 23 22 19 21 24 23 21 21 21 22 24 25 24 24 24
24 25 27 28 26 24 23 24 25 27 27 27 27 25 23 22 22 23 25 27 29 29 29 29 30 30 29 29 29 30 30 29 27 25 24 26 22 16 14 14 11 8 6 6 7 8 8 9 10 11 12 13 15 16 17 18 19 21 22 23 24 24 25 26 26 25 25 25 24 23 23 22 22 22 22 22 22 23 23 23 24 24 24 24 23
25 26 27 26 25 24 25 27 27 28 29 28 27 25 23 22 22 23 24 26 27 28 28 29 30 31 30 28 27 29 30 28 25 24 23 24 20 13 11 12 11 9 7 5 4 6 7 7 8 9 10 11 12 13 15 15 16 18 20 21 23 23 23 24 24 24 24 24 25 24 22 22 22 21 20 21 22 23 24 24 24 24 24 21 18
24 25 26 26 27 28 28 28 28 28 28 27 27 27 25 22 21 21 23 25 27 28 28 29 30 31 29 27 26 29 31 27 23 22 22 22 17 10 8 10 9 8 7 5 4 5 6 7 7 9 10 10 10 11 12 14 14 15 16 17 18 20 21 21 21 22 22 22 22 22 21 20 20 19 19 19 20 22 22 21 21 21 20 17 15
24 25 26 27 29 29 28 26 26 26 27 28 30 28 24 21 21 21 22 24 26 27 28 30 30 29 28 27 26 28 29 26 23 20 20 20 16 9 7 7 7 6 5 3 3 4 5 6 7 8 9 9 8 8 9 11 13 14 14 13 13 14 15 16 16 17 19 20 20 20 19 19 18 18 18 18 20 21 20 19 20 20 19 15 13
25 26 27 28 28 26 24 24 25 27 31 32 29 24 20 21 22 22 22 24 26 28 29 30 30 28 25 24 23 24 24 22 19 17 17 18 16 10 7 6 5 5 4 2 2 3 4 5 5 7 7 7 7 6 6 9 12 13 14 13 12 11 11 12 12 13 14 15 16 16 17 18 18 17 17 18 20 22 22 21 21 22 21 16 14
25 26 28 28 28 26 25 26 29 32 32 27 21 19 21 23 24 24 24 24 26 27 28 27 27 25 22 22 23 23 23 21 17 15 15 17 15 11 8 7 6 5 4 4 3 3 4 5 5 5 6 6 5 4 5 8 10 10 12 13 12 11 11 11 12 13 12 12 12 12 14 16 18 19 19 19 19 21 23 23 22 23 23 19 16
25 28 30 31 30 29 29 29 29 27 23 20 20 23 24 24 24 25 25 25 26 27 26 25 25 24 23 23 24 25 24 23 20 16 14 15 15 12 7 6 5 5 5 5 5 4 6 7 7 7 6 6 6 5 5 8 10 9 10 12 12 12 11 11 12 13 13 12 11 11 11 12 14 17 19 20 19 18 21 23 22 23 23 20 18
29 31 33 33 32 30 27 23 21 20 21 23 25 26 25 24 25 25 26 25 25 25 24 23 23 24 23 23 24 25 24 23 20 16 14 15 15 12 8 7 6 4 4 4 6 7 7 8 7 6 5 5 5 6 7 8 11 11 10 10 10 11 11 11 11 12 12 12 10 10 9 9 10 12 14 17 16 15 17 21 22 21 21 21 20
32 32 32 30 28 25 23 21 22 24 25 26 27 27 26 24 24 25 25 25 24 24 24 23 22 23 23 24 24 23 21 19 17 17 15 14 14 12 9 8 8 7 4 4 6 8 10 8 6 4 4 4 4 5 6 7 9 10 9 8 8 9 10 10 12 12 12 10 9 8 8 7 8 9 9 11 11 10 11 15 18 19 19 19 19
30 28 27 26 26 26 26 26 26 26 26 27 27 26 25 23 24 24 23 22 22 22 22 21 20 20 21 21 22 21 19 15 15 16 14 12 12 12 10 8 8 8 6 6 9 11 10 7 4 4 3 3 4 6 7 9 10 10 9 8 9 10 11 11 12 12 11 10 9 9 8 7 7 8 8 8 8 8 8 9 12 15 14 14 15
26 26 26 27 28 28 26 26 26 26 27 28 26 24 23 23 23 23 21 20 19 20 20 19 18 17 17 18 19 20 16 11 11 11 10 8 8 9 9 8 8 9 9 8 10 11 8 6 5 5 5 7 9 10 12 12 12 13 14 13 12 12 13 13 14 14 12 10 10 9 8 8 8 8 8 8 8 8 9 9 10 11 11 10 10
27 28 28 28 28 27 26 27 27 27 26 26 24 22 21 21 22 21 20 18 17 17 17 16 16 16 16 16 18 17 12 8 7 6 6 7 6 5 5 6 8 11 10 9 8 8 7 7 7 6 6 8 11 12 13 12 11 11 13 13 12 12 13 13 13 14 13 12 11 11 10 11 10 10 10 11 11 10 10 11 11 11 10 9 7
29 29 28 28 28 28 28 28 26 25 25 25 22 19 18 19 20 20 19 17 17 16 16 15 15 15 15 16 17 15 8 7 5 4 5 6 5 1 4 7 8 8 8 8 7 6 6 7 7 6 6 7 8 8 7 7 7 7 7 7 8 9 9 10 10 12 13 13 12 12 12 13 14 13 13 14 14 12 11 11 11 10 9 8 7
28 28 29 29 29 28 27 26 24 22 23 22 19 17 18 18 18 18 17 16 15 15 15 14 14 14 14 15 16 13 8 8 5 3 4 5 4 1 2 4 4 5 6 7 6 7 7 6 6 6 5 5 6 6 5 5 5 5 6 5 5 5 6 7 8 9 10 11 12 13 13 14 15 15 14 14 14 12 11 10 9 8 6 6 6
27 28 29 29 27 26 25 23 21 20 21 20 18 18 19 18 18 18 18 17 16 16 15 15 15 15 14 14 13 9 6 7 6 5 5 4 4 3 3 4 4 4 6 8 8 8 7 5 5 6 5 5 6 6 5 5 6 7 7 7 7 7 8 8 9 10 10 11 12 13 13 14 14 13 13 12 11 10 9 9 8 7 6 5 5
27 28 28 27 26 25 23 21 20 21 21 20 19 19 19 18 18 20 20 18 18 18 17 17 18 18 18 15 11 6 2 1 4 7 8 6 6 6 5 5 5 5 7 10 9 7 5 3 3 5 5 5 6 6 6 9 10 9 8 8 8 8 8 9 10 10 10 10 11 13 13 13 13 12 12 11 9 8 7 7 8 8 7 6 5
26 26 26 26 25 23 22 21 21 21 21 20 20 21 21 18 17 18 19 19 18 17 17 17 17 17 16 14 10 6 4 3 3 5 5 4 5 5 4 4 6 7 8 9 8 5 4 3 3 4 5 6 6 6 8 11 12 10 9 8 7 7 8 8 9 9 10 10 10 11 12 13 13 12 12 11 10 8 7 7 7 7 7 7 6
24 24 25 26 24 23 21 21 21 21 20 20 20 21 21 21 19 18 17 16 16 15 14 15 15 14 14 14 13 11 8 5 4 3 1 0 3 4 3 3 5 6 7 6 4 4 4 4 4 5 6 6 6 6 9 12 13 11 11 10 8 8 8 8 8 9 10 11 11 11 11 12 13 12 12 12 11 10 8 7 7 7 7 7 7
23 24 26 26 24 23 22 22 21 20 19 20 20 20 20 20 21 23 21 16 14 13 11 12 13 10 6 6 9 10 8 7 7 6 4 1 2 3 3 3 5 6 7 8 7 6 5 5 5 7 9 9 7 7 9 11 12 12 11 11 10 9 9 9 9 9 10 10 11 11 10 11 12 12 12 12 11 10 9 8 7 8 8 8 8
25 27 27 25 24 23 23 22 21 19 18 18 19 20 19 17 18 22 24 20 15 12 10 10 9 6 1 1 1 2 4 5 7 8 7 4 2 3 5 5 6 6 7 8 7 6 5 5 5 6 10 11 9 8 9 10 11 11 11 10 10 10 10 9 9 9 9 9 10 10 10 10 11 12 12 11 11 10 10 9 8 8 9 9 8
28 28 25 23 23 23 22 22 21 19 18 18 18 19 20 19 17 17 19 20 18 15 13 10 8 7 8 8 6 4 3 3 5 8 9 6 5 7 6 4 6 7 8 7 6 6 5 5 5 6 7 9 9 9 9 9 9 10 10 9 10 11 11 11 10 10 10 10 10 10 10 10 11 12 12 11 11 10 10 9 9 8 8 8 8
29 26 23 22 23 22 22 22 21 19 18 18 19 20 20 20 19 17 16 17 17 18 18 16 12 11 11 12 12 11 11 11 11 11 12 11 9 8 7 7 8 7 7 6 6 6 6 6 6 5 6 6 7 8 9 9 10 10 10 10 11 12 12 12 11 11 11 11 11 11 11 11 11 11 11 11 11 10 10 9 9 9 8 9 8
28 25 22 21 21 22 23 23 22 21 21 20 20 20 21 20 20 19 18 18 17 17 19 20 17 14 12 11 12 12 11 13 13 13 12 11 10 10 11 10 8 7 7 6 7 7 7 8 8 7 7 7 8 9 10 10 10 10 11 11 12 12 12 11 11 11 10 10 10 11 11 11 11 10 10 10 10 10 10 10 9 9 9 9 8
26 23 21 20 21 22 23 23 23 23 22 21 20 21 21 21 20 19 19 18 18 17 18 20 19 16 14 13 12 11 10 10 10 8 7 7 9 12 13 13 12 11 10 10 9 8 8 8 8 8 8 8 9 10 10 11 11 11 11 11 12 12 12 11 11 11 11 11 10 10 10 10 10 10 10 10 10 10 10 10 9 9 8 8 7
22 20 18 19 21 23 23 23 24 23 22 22 21 20 20 20 20 19 18 18 18 17 18 18 17 17 16 15 13 11 10 10 9 9 9 9 10 11 12 13 13 13 12 11 10 10 10 9 8 8 9 9 9 10 11 11 11 11 12 12 12 12 12 12 11 11 11 11 11 11 10 10 10 10 10 10 11 10 10 10 9 9 8 6 6
20 18 17 19 22 22 22 23 24 23 22 21 20 20 19 19 19 18 18 17 17 17 17 17 18 18 17 15 13 11 10 10 10 10 11 12 12 12 11 12 12 12 11 11 11 11 10 9 9 9 9 9 10 10 10 11 11 12 12 13 14 14 14 14 13 12 12 12 12 12 11 10 10 10 10 10 11 11 10 10 9 9 8 7 5
18 18 19 21 22 23 24 26 25 22 21 20 20 19 19 18 18 18 18 17 17 17 17 17 18 19 17 15 13 12 12 12 11 10 10 12 13 12 11 11 12 12 11 11 11 11 11 11 10 9 9 10 10 9 10 10 11 12 12 13 13 13 14 13 13 13 13 13 12 12 11 11 11 11 10 10 10 11 11 11 10 9 8 7 6
18 20 22 23 23 24 27 27 25 22 21 20 20 19 18 18 18 18 18 17 17 17 17 18 19 19 18 16 14 13 14 14 12 11 10 11 12 11 10 11 11 12 12 12 12 12 11 11 11 10 10 10 10 10 10 11 11 12 12 12 13 13 13 13 13 13 13 13 12 12 11 11 11 11 11 11 11 11 11 10 9 9 8 7 6
20 23 24 25 25 26 27 26 24 22 21 20 19 18 18 18 18 18 18 18 18 18 18 19 20 20 19 16 14 13 14 14 13 12 11 11 12 12 11 10 11 11 12 12 12 12 12 12 11 11 11 11 12 12 12 12 12 12 13 13 13 14 14 13 13 13 13 13 13 12 12 11 11 11 11 12 11 11 10 9 9 8 7 7 6
23 25 25 26 27 27 26 24 22 21 21 20 19 18 18 19 18 18 17 18 18 18 19 19 20 20 19 17 14 13 15 15 14 13 13 12 13 13 12 11 11 10 11 12 12 12 12 12 11 11 11 11 11 12 12 12 12 12 13 14 13 13 14 14 13 13 14 14 13 13 12 12 11 11 12 12 11 10 9 9 9 8 7 7 6
26 27 27 28 27 26 23 21 21 21 20 20 19 19 19 19 19 18 18 18 18 18 18 19 19 19 19 18 16 15 17 18 16 15 14 14 15 14 13 12 12 11 12 12 12 12 12 12 11 11 10 10 10 10 10 11 12 13 13 14 14 14 14 15 14 14 14 14 14 13 12 11 12 12 12 12 11 10 10 9 8 8 7 6 6
27 27 28 27 25 23 21 20 19 18 18 19 19 19 19 19 18 18 18 18 18 18 18 18 19 19 18 17 16 15 17 18 18 17 16 15 16 15 14 14 13 13 12 13 13 13 12 12 11 12 11 11 11 11 11 11 12 13 13 14 14 15 15 14 14 13 13 14 14 14 13 12 13 13 12 12 11 10 10 9 8 8 7 7 6
26 26 26 24 22 20 19 18 17 18 18 18 19 19 19 19 18 18 18 18 18 18 18 18 18 18 17 16 16 15 16 18 18 17 16 16 16 17 16 15 14 14 13 13 13 13 13 12 13 13 13 13 13 12 12 12 13 13 13 14 14 14 14 13 13 13 13 14 14 14 13 13 13 13 12 11 10 9 9 9 8 7 7 7 6
26 25 23 21 20 18 18 18 18 18 18 17 18 18 18 18 18 18 18 19 18 18 18 17 17 17 17 16 16 16 16 16 17 17 16 15 15 16 16 15 14 14 13 13 14 14 14 13 13 13 13 14 14 13 13 13 13 14 14 14 14 14 13 13 13 12 12 12 14 14 14 14 14 13 12 11 10 9 10 9 8 7 7 7 7
24 22 20 18 17 17 18 18 18 18 17 17 17 17 17 17 18 18 18 19 18 18 18 18 18 17 17 17 17 17 16 16 17 16 15 14 13 14 15 15 14 14 14 14 14 14 14 14 14 14 15 15 15 14 13 14 14 15 15 14 13 13 12 12 12 11 11 11 13 12 12 13 14 14 13 12 11 11 10 10 8 8 7 7 7
22 20 18 17 16 17 18 18 18 17 17 17 17 17 17 17 17 17 17 18 18 18 17 17 17 17 17 17 16 16 15 15 16 16 15 14 13 13 14 14 14 14 15 16 15 14 14 14 15 15 15 16 15 15 14 15 15 15 14 13 13 12 12 12 12 12 11 12 13 12 12 12 14 14 13 12 12 11 10 9 8 8 7 7 7
20 19 17 16 17 17 18 18 17 17 17 17 17 17 17 16 15 16 17 18 18 18 17 17 17 16 16 16 15 15 14 14 15 15 15 15 13 13 14 15 15 14 15 16 16 14 14 15 16 16 16 16 16 15 15 16 16 15 14 13 13 12 12 12 13 13 13 14 15 14 14 14 14 15 14 13 12 11 10 9 9 8 8 7 7
19 18 17 17 18 18 18 18 17 16 17 17 16 17 17 16 16 16 17 17 18 17 17 16 15 14 13 13 13 13 13 13 13 13 14 14 14 13 14 15 15 15 16 17 16 15 15 15 17 18 18 17 17 16 16 16 16 15 14 13 12 12 13 14 14 14 14 15 15 16 15 15 15 15 14 12 12 11 10 9 8 7 6 5 5
Wind_Direction
339 340 340 339 337 335 334 334 335 336 334 332 332 333 334 336 337 337 338 339 339 339 340 340 340 338 334 332 331 329 325 323 324 320 295 271 260 254 249 243 239 238 238 236 234 231 229 229 228 227 225 223 223 224 225 227 230 228 224 222 223 223 221 220 226 230 213 217 222 218 216 215 213 215 217 220 225 228 230 233 235 236 237 238 239
330 331 332 333 333 332 331 330 332 333 331 328 329 330 330 331 332 333 334 335 336 337 338 337 337 337 334 332 331 329 327 322 319 323 316 291 270 259 253 248 243 241 239 237 236 233 231 230 230 229 226 224 224 224 224 227 230 230 228 225 224 223 221 219 221 223 210 209 215 215 214 212 211 213 214 217 221 224 226 229 231 234 236 237 239
322 320 320 322 324 326 326 326 330 330 326 324 327 328 328 327 329 331 331 331 332 334 334 335 335 335 333 331 330 329 328 325 319 317 319 313 293 271 257 249 246 244 241 239 237 235 232 231 231 230 227 225 225 225 225 226 227 228 228 227 226 226 224 221 221 218 210 206 204 204 207 209 211 213 215 217 220 221 223 226 228 231 233 235 237
318 315 313 313 315 318 319 321 326 326 322 322 326 327 325 324 328 331 330 329 329 330 331 333 334 332 330 329 327 326 327 326 322 317 314 315 311 295 271 253 246 245 243 241 239 235 232 232 232 231 227 224 225 225 224 224 223 223 224 224 225 226 225 225 225 223 217 210 206 205 205 207 210 214 215 216 218 220 222 224 227 229 231 234 236
315 313 310 309 310 313 314 317 320 320 318 320 324 324 320 319 324 329 331 329 327 327 329 330 332 330 328 327 323 322 324 324 322 319 315 312 310 306 292 266 251 245 243 243 241 238 234 232 232 229 224 222 223 222 221 221 221 220 221 221 222 223 224 225 226 226 223 218 214 210 207 206 208 212 213 213 213 216 220 223 225 227 230 232 235
312 310 306 305 306 308 310 313 314 312 311 314 318 319 315 313 316 321 327 329 326 325 326 327 328 326 324 324 321 318 319 320 320 318 315 313 310 306 302 285 264 251 246 243 241 238 236 234 233 230 224 222 222 221 220 219 219 218 219 219 220 220 221 221 222 223 223 221 215 207 203 202 202 205 209 212 212 210 211 216 221 224 227 228 231
308 305 302 301 300 301 305 308 308 306 305 307 310 312 310 309 310 314 320 324 323 323 325 325 324 323 321 321 318 315 315 316 317 317 314 313 313 309 303 295 279 264 255 250 246 240 235 233 231 227 224 222 222 221 219 218 217 218 218 218 218 217 216 215 215 213 213 210 207 202 199 197 198 202 206 209 212 212 208 206 211 217 221 225 227
303 302 299 296 294 296 301 303 302 302 302 303 304 304 304 304 306 309 312 316 318 321 323 322 321 321 320 317 314 313 312 312 314 315 312 311 312 310 306 298 286 273 263 257 252 247 240 234 230 225 222 221 220 219 217 215 213 213 215 215 213 211 209 206 204 203 202 198 198 200 198 195 193 194 198 200 203 208 208 206 209 214 217 221 225
300 302 299 294 291 294 297 298 298 300 300 299 298 298 301 303 304 306 307 310 314 318 319 319 319 319 318 315 313 312 309 308 310 311 308 308 309 306 302 297 289 277 266 259 254 249 245 240 235 230 226 223 221 220 218 216 214 212 212 210 209 207 205 203 202 200 198 195 196 196 198 202 198 188 189 197 201 205 207 209 214 217 218 220 224
301 303 298 293 291 291 293 294 296 299 299 297 296 296 299 302 302 303 304 307 312 315 317 316 315 316 316 314 312 310 307 304 307 308 304 302 306 305 295 290 289 280 266 258 252 246 242 240 238 235 232 229 227 226 224 223 222 220 218 214 211 208 205 203 204 204 201 199 199 194 196 209 211 203 201 204 206 208 207 207 211 215 214 218 224
303 303 300 296 292 288 290 293 296 299 299 297 296 297 298 299 299 299 302 307 311 313 314 314 313 313 314 312 309 306 304 303 304 306 300 296 304 312 302 285 279 277 270 259 250 244 237 234 233 231 230 228 228 228 227 226 225 225 224 223 220 216 212 208 207 206 206 208 208 202 205 215 217 214 215 213 209 210 210 209 208 206 202 206 217
304 304 303 300 292 287 291 296 299 301 300 297 296 297 297 296 295 297 302 307 310 311 311 311 311 311 311 308 304 302 302 302 302 302 298 295 301 312 313 302 282 271 270 263 252 245 236 231 228 225 223 222 222 223 223 224 224 224 225 225 224 224 221 218 215 211 210 211 210 209 214 219 217 216 218 217 214 214 213 211 209 206 203 206 212
304 304 304 299 291 288 292 297 301 301 299 298 298 297 295 292 293 299 305 308 309 308 308 309 309 309 307 304 301 298 298 298 299 299 295 294 298 303 308 315 307 278 266 259 250 242 233 229 225 222 221 218 217 217 217 219 220 222 223 224 224 225 225 224 223 220 217 214 212 215 218 218 216 218 219 218 217 216 214 211 210 209 208 211 216
305 304 304 298 291 289 293 297 298 297 296 296 295 292 289 289 293 301 305 307 307 305 305 306 306 306 304 301 297 295 295 296 297 296 292 291 294 296 298 307 311 299 274 247 239 236 229 226 222 219 219 217 215 216 217 219 220 220 221 222 223 223 223 223 223 222 222 219 218 221 222 221 222 224 222 219 218 217 215 214 213 212 213 217 221
306 304 303 297 291 290 293 293 292 292 293 293 291 287 285 287 293 300 304 306 304 302 301 302 303 303 302 299 295 293 294 294 293 292 290 290 290 286 289 299 303 299 285 256 230 221 219 220 217 212 211 213 216 218 218 219 220 217 215 217 220 221 221 222 221 220 222 223 223 225 226 226 229 229 226 224 224 224 225 225 225 222 219 217 217
306 303 300 297 293 291 290 289 289 291 292 292 290 286 284 288 296 301 303 303 301 298 298 299 300 300 298 295 291 291 293 292 289 287 288 293 292 276 271 291 297 294 286 263 235 220 212 208 202 196 196 204 211 214 215 216 215 213 210 209 211 214 218 222 223 222 223 225 227 229 229 231 232 231 229 226 224 226 226 226 225 220 212 208 208
305 303 300 297 294 291 290 292 293 295 297 296 290 284 284 293 301 301 301 301 299 297 297 297 297 296 294 290 288 292 295 293 288 283 283 292 299 282 255 272 280 280 284 261 221 210 203 199 193 188 190 196 198 199 207 211 210 209 209 205 202 203 207 212 215 218 223 227 230 232 233 233 231 229 227 223 220 220 214 209 208 205 200 201 208
305 304 302 299 297 296 297 300 302 303 302 295 286 282 290 300 303 302 300 298 297 297 297 296 295 293 289 286 286 293 298 294 287 283 282 288 297 289 259 249 242 243 260 250 188 177 178 180 182 182 183 185 184 184 196 203 202 202 204 203 200 197 197 195 193 196 205 211 214 221 227 229 226 221 218 219 222 222 217 212 207 201 198 202 208
306 307 307 305 303 302 304 306 307 305 300 293 288 296 305 305 303 302 301 299 297 296 295 294 292 289 285 285 286 290 294 292 287 286 283 282 290 290 266 237 218 209 216 218 195 153 136 132 134 143 146 145 148 154 175 188 188 190 193 191 186 189 196 197 193 190 190 189 190 197 206 211 213 211 210 213 219 222 224 223 216 206 203 205 204
313 315 313 309 305 302 304 308 309 307 306 305 308 310 307 303 302 302 301 301 298 296 293 290 287 285 284 286 287 287 289 290 287 286 283 276 279 285 269 233 212 198 198 210 208 175 143 133 127 118 110 113 117 106 125 164 172 173 180 182 178 179 184 187 189 191 193 192 189 189 189 190 197 202 206 211 216 218 220 223 222 217 214 211 206
319 317 312 307 302 301 304 308 310 313 316 316 313 309 305 302 301 301 302 302 298 293 291 288 285 284 285 287 288 286 287 286 282 281 280 273 270 271 260 239 228 211 187 195 205 188 165 158 155 138 108 103 114 99 96 133 156 159 163 171 174 177 178 175 177 183 188 190 190 191 191 187 187 190 195 204 211 213 213 216 221 223 223 220 215
318 314 311 309 309 310 311 310 310 312 314 314 311 307 304 301 300 301 302 301 296 291 290 288 284 283 285 289 291 292 289 283 276 277 278 269 261 258 247 231 230 231 215 176 170 168 164 167 165 142 109 102 120 110 89 109 141 152 157 166 170 172 172 171 171 174 179 184 187 189 191 193 194 193 193 198 203 204 203 207 214 218 220 223 223
318 317 318 319 319 317 312 307 307 309 311 312 310 304 301 300 301 303 302 298 294 290 289 288 285 284 287 291 295 300 299 284 270 273 275 264 254 249 237 218 215 219 206 163 148 151 155 157 140 116 112 117 130 131 113 109 119 126 132 148 161 165 166 167 170 169 169 171 175 177 181 184 184 186 189 191 196 200 193 189 200 207 209 212 216
323 323 323 321 318 315 310 307 307 308 310 311 308 302 301 303 303 302 300 296 292 289 286 287 285 284 287 292 296 303 302 283 266 269 265 253 252 249 234 214 193 184 173 150 143 144 142 133 125 118 110 104 111 119 115 110 112 116 121 132 146 157 161 164 169 171 171 175 177 175 178 181 178 177 180 177 177 182 179 174 180 190 194 192 191
328 325 322 319 316 314 312 309 307 306 309 309 304 299 302 305 304 301 297 293 290 288 287 288 286 284 287 292 298 303 294 259 257 274 250 235 251 248 203 159 145 155 159 147 138 139 132 124 126 122 113 113 120 122 118 115 118 121 123 126 131 140 146 149 154 158 160 165 169 169 170 174 171 169 171 171 170 169 168 167 167 172 180 182 176
327 324 321 319 317 314 311 308 306 307 311 309 300 296 302 306 303 298 293 289 287 285 286 288 289 289 289 290 298 302 280 231 244 283 244 228 246 253 128 117 115 136 154 146 133 132 130 130 134 133 132 145 155 150 140 142 145 139 137 134 128 130 136 139 143 145 144 144 146 147 150 154 155 155 158 162 163 164 166 167 165 166 178 186 184
326 323 320 318 317 315 313 309 307 311 316 311 302 299 304 304 299 295 292 290 287 284 285 289 292 294 293 295 302 297 258 222 232 254 223 221 238 271 115 131 129 139 155 156 151 151 148 145 151 153 149 155 171 176 173 176 180 177 177 179 168 154 150 151 154 155 153 149 145 142 143 148 150 151 155 158 157 159 167 173 169 164 173 184 183
327 324 322 319 318 317 314 311 311 317 319 314 308 306 305 303 299 295 292 290 288 286 286 287 291 295 296 302 310 298 243 223 237 231 208 204 194 160 148 161 156 151 162 163 158 157 155 147 147 155 156 153 156 158 156 156 159 161 164 165 165 163 159 155 155 157 157 157 155 151 151 154 156 157 160 160 157 157 168 178 178 177 182 183 174
327 325 324 321 319 317 315 313 315 318 316 312 310 309 307 303 300 299 297 294 290 285 281 280 281 285 287 293 300 298 253 231 235 213 201 200 194 185 191 196 182 169 169 167 162 158 157 143 138 149 153 155 154 151 150 151 148 146 149 152 155 163 168 167 167 166 164 162 160 159 160 161 162 166 170 167 161 161 171 181 181 182 189 188 177
324 324 324 322 318 316 315 315 317 318 315 311 311 310 308 305 302 300 301 301 295 283 274 272 276 279 277 271 269 270 271 266 223 198 197 201 196 196 203 186 169 166 165 162 159 156 150 143 147 153 155 156 156 152 158 161 155 145 142 146 150 159 167 172 177 180 180 177 172 167 167 168 167 169 173 171 167 167 174 181 183 185 188 184 174
319 320 322 321 317 316 315 315 317 319 317 314 310 308 306 306 307 307 307 306 303 293 275 266 270 276 270 257 250 252 251 235 214 221 286 273 164 170 160 145 161 177 183 188 199 201 189 192 200 192 173 162 152 144 152 161 160 151 144 144 147 155 160 158 160 167 174 177 176 172 171 171 171 171 172 170 167 167 170 175 180 183 182 180 176
316 317 318 317 315 314 313 314 316 318 319 317 313 307 304 304 310 316 319 317 311 306 294 280 279 285 287 270 253 238 224 223 233 248 264 248 170 190 209 221 228 228 225 224 220 206 193 201 211 200 184 173 162 150 149 154 158 158 157 156 156 160 164 163 162 166 170 172 172 172 170 169 168 169 170 170 168 165 165 166 167 168 166 162 160
317 315 314 313 312 312 311 310 310 312 313 315 314 310 306 302 304 312 318 320 317 308 299 299 304 304 313 6 310 206 214 245 248 236 229 223 251 284 273 254 237 224 210 197 183 168 162 164 166 171 174 173 169 166 160 157 158 163 168 172 170 167 167 170 173 176 177 175 173 171 169 169 168 166 166 169 170 167 164 164 164 162 159 154 150
319 315 311 311 310 310 309 307 305 304 307 311 313 312 309 304 301 303 308 313 315 308 295 293 305 298 275 269 268 255 255 258 224 210 217 235 279 293 273 210 175 181 188 185 178 176 175 166 155 156 164 169 172 177 176 174 172 173 175 177 176 172 170 171 173 174 174 175 175 173 171 172 173 171 169 168 167 166 165 167 170 170 167 163 159
322 316 313 313 313 310 308 306 301 298 300 305 309 310 309 305 302 299 298 300 302 302 297 292 293 296 289 281 274 267 263 260 250 242 245 259 274 266 229 186 169 180 195 201 204 207 207 202 196 191 188 187 190 191 190 189 189 189 189 185 180 176 173 173 172 171 171 172 173 173 174 175 176 177 176 174 172 171 169 170 175 178 177 176 174
324 317 313 315 318 316 312 307 300 295 294 298 304 306 307 305 301 298 297 296 291 290 293 293 294 296 291 284 283 283 275 266 259 258 262 263 249 226 215 212 210 210 213 218 223 226 225 222 218 215 214 212 209 204 200 197 195 195 196 194 191 187 183 180 178 178 178 178 176 177 179 179 178 179 178 175 176 176 175 173 175 177 178 179 178
323 317 312 316 322 322 318 313 307 301 296 297 300 302 303 304 301 297 295 294 291 288 289 291 296 296 287 281 284 286 279 267 256 252 255 244 221 215 222 230 232 234 238 240 237 231 223 217 215 215 214 211 207 203 202 198 195 193 193 194 195 194 191 189 188 188 188 187 184 184 184 182 182 185 185 179 175 173 173 175 175 173 175 179 179
322 317 315 321 326 326 322 318 315 309 303 300 300 299 300 302 301 297 292 290 289 288 288 289 292 290 287 286 288 284 274 263 249 235 225 222 221 224 230 233 236 241 244 241 233 226 220 219 221 222 218 213 207 203 201 198 195 192 190 189 189 189 187 186 185 187 189 188 185 186 188 185 184 190 192 187 182 178 177 180 181 178 176 178 183
321 318 319 323 325 325 323 320 315 309 305 302 300 299 299 299 299 296 292 289 286 285 286 287 286 286 287 290 289 278 265 259 257 248 236 231 234 238 238 238 238 237 233 227 222 222 224 225 226 223 218 214 209 205 202 198 194 192 190 186 182 181 182 183 183 183 184 184 181 182 186 187 187 190 191 188 186 183 179 180 183 183 180 178 179
317 318 321 324 325 323 322 319 313 306 303 302 301 301 299 297 297 295 291 287 284 282 283 284 283 284 288 291 285 273 261 259 266 269 255 242 240 241 241 238 233 227 223 221 221 224 225 223 220 216 214 213 211 208 205 200 195 192 191 188 183 180 180 182 183 183 182 182 182 183 187 189 190 190 188 186 185 183 181 179 178 179 179 175 173
316 320 323 325 325 323 320 317 311 305 301 299 299 299 298 297 298 297 292 287 283 281 281 281 281 283 288 288 282 271 263 261 267 269 259 246 241 240 239 236 232 229 227 225 223 222 221 219 217 218 219 219 219 216 210 204 199 196 193 190 186 182 179 179 182 184 182 183 185 186 186 188 190 188 184 180 177 177 179 179 178 181 183 182 183
321 325 326 326 325 322 318 313 308 305 303 301 300 301 301 301 300 298 294 289 286 283 281 280 281 284 287 286 278 264 257 258 260 257 251 242 238 240 242 241 237 235 232 229 227 225 223 222 224 225 223 220 218 216 211 207 203 199 196 193 190 186 183 183 185 187 185 184 186 186 183 182 184 183 181 178 177 175 176 177 178 180 182 181 185
327 328 327 325 322 318 314 310 307 306 305 305 305 306 306 305 302 298 295 292 289 285 282 281 283 286 287 287 278 260 252 253 253 250 245 238 236 240 244 242 240 239 235 232 231 231 230 230 228 225 222 218 216 215 215 209 204 198 196 195 194 192 190 189 187 187 185 182 182 183 183 183 184 182 178 177 178 177 176 176 175 176 181 185 192
330 329 326 322 319 317 314 311 308 306 307 309 311 313 312 310 306 302 299 296 293 289 284 282 284 286 286 287 282 266 254 252 254 254 250 242 237 239 241 240 242 243 237 231 231 231 230 228 224 218 216 213 212 213 213 209 206 204 202 198 195 193 193 191 189 189 189 187 184 184 185 186 184 180 177 178 180 180 179 180 181 183 188 195 199
330 328 324 320 317 316 314 313 312 314 319 322 322 320 318 316 312 307 302 298 296 294 290 286 286 286 285 285 282 269 255 250 253 259 260 252 244 242 242 242 245 246 239 234 232 229 225 222 218 214 210 207 206 206 207 206 205 207 208 206 201 198 196 195 195 196 198 197 194 191 190 190 187 184 184 185 186 187 187 189 191 192 193 196 199
329 325 321 319 317 316 315 319 324 327 329 328 325 322 321 320 317 314 310 305 301 298 296 293 290 287 286 285 283 274 261 253 251 256 261 257 249 244 243 245 245 242 234 229 228 225 222 219 216 213 209 205 203 202 204 205 204 204 207 208 206 203 201 201 202 204 207 206 203 198 195 193 190 189 190 190 189 191 191 188 188 190 190 196 210
329 326 323 320 319 320 323 328 330 329 328 326 324 322 322 321 321 320 318 314 309 305 302 300 296 291 287 285 283 279 272 263 258 258 262 261 253 244 240 241 239 234 227 223 222 222 222 219 216 212 208 206 204 203 204 204 202 200 202 204 205 205 205 206 208 210 208 206 203 200 199 197 194 190 191 188 185 185 183 180 183 192 199 211 229
330 328 326 324 325 328 330 331 330 328 326 326 325 324 324 325 324 325 324 323 321 315 309 305 302 297 293 291 288 283 278 271 267 265 266 265 258 247 238 237 236 233 226 220 219 222 223 219 215 211 208 207 206 205 203 202 199 198 200 202 205 207 208 209 210 209 203 199 197 196 196 197 193 190 189 187 181 180 181 183 192 206 213 222 234
332 329 325 325 329 332 331 330 328 327 326 326 325 325 325 324 324 326 328 329 328 326 320 314 308 302 298 298 297 294 286 276 270 267 266 264 260 251 241 237 237 234 227 221 221 224 222 216 213 211 208 208 208 206 204 202 200 199 200 201 204 207 210 209 209 207 203 200 199 196 191 188 185 184 186 187 184 186 192 198 207 217 222 228 239
333 330 326 326 331 334 331 329 328 327 328 328 327 325 325 324 325 329 332 330 328 328 327 323 318 311 303 300 299 299 294 283 273 268 265 261 257 251 243 238 236 233 228 224 224 223 218 212 212 211 209 209 210 210 208 207 205 205 206 208 208 210 211 209 207 208 208 205 201 196 190 186 183 183 187 191 194 198 205 209 214 222 226 230 242
332 332 332 332 334 334 331 328 328 328 330 331 332 332 333 331 328 328 327 325 325 326 326 324 322 319 313 307 302 297 293 287 279 270 264 259 256 251 243 237 235 233 228 224 222 221 217 214 213 212 210 211 212 211 209 209 209 210 211 212 211 212 210 205 203 204 202 197 193 190 187 186 185 185 188 193 196 201 205 206 209 217 225 234 248